RH
66 60 62 64 65 59 55 53 43 51 51 51 56 50 51 61 56 67 64 61 57 59 69 75 82 77 77 76 76 77 77 77 77 76 75 76 76 76 75 75 76 75 74 73 74 71 70 70 70
61 69 61 67 62 82 72 54 56 50 51 46 48 53 58 68 69 80 64 63 56 55 62 68 85 82 78 76 78 76 75 77 77 78 76 76 76 75 74 74 75 74 74 73 72 70 69 69 69
57 60 56 78 68 68 68 54 52 51 48 47 52 52 60 70 74 66 62 62 58 59 60 61 81 78 79 76 77 76 75 76 78 77 74 75 76 75 74 75 74 74 74 73 70 70 69 69 69
56 58 63 65 70 64 54 50 49 50 47 48 51 61 61 61 60 59 62 61 57 62 58 71 79 78 79 77 78 75 74 76 77 77 75 75 74 74 73 72 73 75 74 72 71 70 70 69 68
58 62 67 66 64 57 51 48 47 50 52 55 52 67 70 64 60 61 63 61 58 66 69 65 81 78 78 80 76 75 74 76 77 75 75 76 74 73 74 73 74 71 70 70 70 69 67 64 63
60 60 69 67 61 54 47 45 47 49 53 55 59 63 66 67 66 64 58 58 56 61 58 83 75 77 77 76 76 75 71 76 76 74 77 74 74 75 74 70 68 68 69 68 69 67 67 67 65
57 61 71 66 64 55 48 42 46 46 47 51 50 62 68 70 65 62 58 61 57 63 67 74 64 68 76 78 76 74 71 74 74 74 74 75 76 74 73 70 69 68 69 69 69 68 69 68 68
50 57 62 63 54 52 42 42 39 41 52 44 47 57 70 66 63 59 61 64 62 64 68 65 73 68 72 82 70 69 74 77 74 77 76 77 75 73 73 74 70 69 69 69 70 69 70 72 70
49 59 60 52 54 47 42 48 44 43 43 46 50 53 53 63 61 60 62 61 62 68 62 58 62 66 78 77 74 72 71 72 75 74 75 72 62 61 61 72 69 68 69 68 69 70 72 74 73
46 62 51 44 44 44 48 43 44 46 46 51 61 62 61 63 64 62 58 58 57 63 66 57 58 59 64 69 84 87 94 96 93 84 82 82 72 66 57 64 70 70 70 72 74 73 70 62 42
54 52 45 42 44 48 45 43 38 43 49 43 49 68 65 64 64 62 58 54 53 58 57 62 64 69 69 85 85 98 98 98 95 82 91 71 69 66 55 56 56 61 66 48 50 46 43 50 46
39 41 44 44 46 49 47 44 43 43 41 38 45 58 63 65 62 60 59 59 57 61 63 70 62 70 74 83 93 98 98 95 89 75 73 72 62 63 65 55 58 60 50 56 54 48 56 56 54
43 39 45 40 47 49 48 46 44 44 44 42 52 60 60 59 60 58 56 58 60 61 63 59 63 73 76 83 95 98 88 73 76 68 74 61 58 64 63 60 54 55 52 53 56 56 55 56 50
34 44 48 49 49 50 49 49 46 47 45 49 53 54 53 57 56 59 60 60 63 62 61 62 67 68 72 80 93 93 80 65 73 64 74 73 61 65 58 59 53 51 54 54 58 58 59 53 45
44 49 46 49 54 51 48 54 49 48 46 50 48 50 52 55 55 57 54 55 57 60 61 62 61 61 70 74 82 80 72 56 80 70 70 73 65 67 71 60 57 55 61 64 58 57 53 47 41
42 45 54 45 56 54 50 55 53 50 50 48 46 49 53 53 51 52 52 51 53 56 65 64 54 59 65 67 68 69 69 58 66 66 62 66 68 70 72 62 56 60 59 57 52 52 51 52 45
38 35 49 46 52 56 56 55 52 49 47 44 47 46 47 49 52 51 50 52 51 57 64 66 64 64 68 73 64 63 66 82 60 60 60 66 64 66 65 56 53 65 63 56 52 49 56 54 48
21 35 47 49 45 57 56 60 48 54 49 46 44 44 46 44 45 46 48 48 52 57 63 65 64 69 73 68 69 61 57 77 62 72 67 66 60 66 64 57 61 61 61 53 50 64 55 56 55
21 23 20 24 27 44 42 42 42 50 51 50 46 45 43 43 39 43 46 46 50 57 64 68 70 74 70 70 63 68 71 76 77 82 69 70 65 64 70 58 64 64 64 65 63 58 60 48 57
12 13 15 19 31 41 33 37 38 49 50 46 47 42 41 38 40 46 46 46 48 56 63 69 70 75 73 69 83 80 82 71 74 81 76 66 65 65 62 69 63 65 60 70 68 69 54 53 58
12 11 14 18 23 33 44 35 42 44 52 48 42 40 38 37 38 44 47 46 48 56 63 68 72 73 73 72 68 81 78 85 76 64 60 59 65 63 67 69 68 67 66 58 66 65 69 52 55
14 10 11 15 17 17 44 30 37 38 48 52 46 41 37 38 36 38 44 47 47 52 56 63 71 72 70 76 69 74 57 54 77 58 55 58 65 64 63 66 70 72 59 69 64 59 67 69 71
12 10 11 14 18 24 33 38 25 46 38 38 44 42 37 34 36 35 40 43 44 49 53 57 69 74 68 75 73 67 67 56 55 55 68 70 69 65 61 68 70 71 61 67 71 70 73 62 58
10 12 14 32 34 30 22 30 17 24 27 18 28 37 39 36 36 36 37 40 46 47 51 55 69 74 71 73 74 76 72 69 62 61 58 56 55 57 68 64 69 70 66 69 64 71 72 70 68
12 13 19 19 28 19 29 39 21 19 22 24 21 24 37 38 37 38 40 44 50 51 52 55 67 73 70 68 68 71 71 72 72 69 57 62 56 56 63 71 72 64 71 68 69 74 71 70 66
15 13 17 27 19 15 25 19 14 14 16 22 24 26 35 38 35 37 40 45 50 51 53 56 64 70 69 69 72 73 71 56 56 63 56 60 58 55 62 66 66 68 69 69 71 64 62 67 70
15 16 11 15 16 16 14 17 14 12 13 12 20 34 39 40 38 38 40 43 50 51 54 58 64 67 65 62 70 74 73 70 62 70 68 58 69 58 67 65 66 66 68 71 77 67 69 70 69
13 11 14 16 26 25 18 23 18 16 12 12 16 28 37 41 41 40 43 42 45 47 51 54 57 62 62 59 63 64 67 71 68 69 72 70 65 73 72 70 69 68 68 71 75 68 70 77 64
15 15 17 15 17 20 22 18 17 21 17 16 14 23 26 42 43 44 47 45 45 47 48 56 56 69 69 63 66 65 63 64 68 66 69 70 68 73 72 73 72 71 71 71 75 75 71 74 74
13 14 14 18 25 19 20 16 12 14 13 17 22 30 35 40 45 44 47 49 48 51 49 51 56 60 65 62 71 68 65 65 62 68 66 70 72 71 74 73 74 73 70 71 74 72 65 72 72
Wind_Speed
9 6 2 2 2 1 4 5 1 3 2 2 2 0 2 4 2 3 3 4 14 16 13 11 11 12 13 11 11 11 11 11 12 11 10 11 11 9 9 9 9 10 11 11 12 12 11 12 13
7 5 1 1 0 3 2 5 5 7 7 8 7 4 3 3 4 6 9 10 16 15 13 11 11 11 14 12 11 11 9 10 10 11 10 10 10 10 8 9 10 9 10 11 12 11 11 12 12
4 2 2 2 2 4 4 7 9 6 2 1 4 5 2 3 4 10 6 13 14 13 12 12 13 14 12 12 11 11 9 8 8 11 10 9 9 9 9 9 10 10 10 11 11 11 11 11 10
1 2 1 2 6 2 4 1 2 3 3 4 6 6 4 4 10 5 13 13 13 12 11 14 14 16 15 13 11 10 8 7 8 10 9 9 9 9 9 10 10 11 10 10 10 10 9 8 6
1 1 2 4 3 1 2 4 5 5 2 3 1 5 5 3 5 12 15 12 14 11 8 13 13 12 14 12 12 10 8 6 8 10 8 9 10 9 10 9 10 11 9 9 8 6 6 4 2
1 0 2 3 3 1 2 3 8 4 2 4 4 5 5 4 8 12 13 11 10 10 10 9 12 11 9 10 10 10 8 6 8 8 9 8 8 9 11 10 10 10 8 7 6 4 4 3 1
2 2 2 2 1 1 2 4 6 4 4 1 8 4 4 6 8 11 12 10 9 8 7 8 9 10 10 10 9 9 7 6 8 9 9 7 8 9 10 8 8 8 8 6 5 3 2 1 1
1 1 1 1 2 3 2 2 6 4 3 8 3 3 6 11 12 11 10 9 7 7 7 7 6 7 7 4 8 7 6 6 8 8 8 7 9 9 10 7 6 7 6 5 4 2 2 4 4
1 1 2 0 2 2 1 4 3 2 9 3 2 3 5 17 15 12 11 9 8 6 6 8 8 8 6 4 3 4 2 1 6 6 6 7 4 6 7 5 4 5 3 2 3 3 4 6 5
2 1 2 2 2 2 2 5 9 5 7 3 4 7 17 17 15 14 13 11 12 10 9 7 8 8 6 5 7 6 6 4 3 4 4 4 5 4 4 3 2 2 1 2 1 2 4 5 4
3 3 2 1 4 1 1 4 5 7 7 7 7 15 17 16 14 13 13 12 13 11 8 8 7 6 6 6 6 4 2 2 1 6 4 5 4 3 3 2 2 1 1 2 2 3 3 5 5
4 6 5 2 2 4 5 4 4 8 1 3 12 17 15 16 14 14 13 12 12 12 9 6 8 7 6 6 5 6 2 3 2 5 5 4 3 3 2 1 1 2 0 3 3 4 5 6 6
4 4 2 2 1 2 2 3 2 9 3 11 16 16 15 14 13 12 11 12 12 12 12 10 9 7 6 7 5 3 2 4 2 3 3 3 3 2 3 2 2 1 1 3 3 4 4 4 6
3 4 1 3 2 2 3 3 3 2 10 13 15 15 13 14 13 11 11 11 12 12 12 12 10 8 7 7 6 3 3 3 2 1 2 4 3 2 2 2 2 2 2 2 3 3 4 5 6
1 0 1 0 2 1 2 6 9 6 11 14 14 13 12 13 12 13 12 11 11 11 11 12 12 10 8 8 9 6 5 5 3 2 3 4 3 3 2 3 3 1 2 4 3 3 3 4 4
3 2 4 1 3 3 3 5 2 11 13 14 15 12 12 13 12 12 11 11 10 10 11 10 9 11 11 8 7 6 5 5 4 3 3 3 3 3 4 2 2 1 1 2 3 3 4 4 4
2 4 4 4 4 1 3 6 5 12 13 14 14 14 13 12 13 13 13 12 11 12 11 11 10 11 11 9 6 6 7 3 3 3 3 3 3 2 3 2 1 1 1 2 3 2 3 4 4
1 3 3 5 1 6 7 16 11 9 14 15 15 14 14 14 17 14 14 13 12 12 12 11 10 10 10 7 6 5 5 3 3 3 4 5 3 4 3 1 2 1 0 1 1 3 2 3 4
1 5 9 5 5 6 12 15 13 10 15 15 15 16 16 19 13 13 13 13 12 12 12 12 12 11 9 6 7 6 5 3 3 3 5 5 4 6 4 2 2 1 1 1 1 3 3 2 4
3 7 12 4 2 7 9 15 13 13 17 18 18 18 19 16 15 15 16 15 15 14 14 13 13 12 10 7 4 2 3 3 2 2 4 5 7 7 5 4 3 2 1 3 1 1 2 1 3
5 10 11 6 6 7 7 9 6 6 14 16 18 20 19 19 18 17 18 18 16 16 15 15 14 13 12 11 7 3 3 2 3 5 4 5 7 8 6 6 4 3 2 2 2 2 1 3 2
16 9 13 11 5 6 2 7 6 3 9 16 19 21 21 21 20 17 18 18 19 18 15 14 14 13 13 13 10 11 9 8 4 5 5 4 8 7 7 6 5 4 3 3 2 2 2 3 2
9 4 5 2 2 4 5 6 5 2 8 15 18 22 23 23 22 21 20 20 21 17 17 16 15 14 13 14 12 10 11 7 4 5 6 5 5 7 8 8 7 6 5 4 4 3 4 3 4
4 5 2 4 2 5 4 7 8 6 10 9 6 17 22 23 22 22 21 17 16 15 15 15 16 15 15 14 15 14 12 10 7 6 5 5 5 5 8 9 8 7 6 6 5 4 5 5 5
6 7 4 5 5 7 2 7 13 12 16 14 15 9 15 20 21 21 20 18 17 18 18 16 17 16 16 16 15 15 15 13 11 10 8 6 6 5 7 9 9 7 7 7 6 6 6 6 6
11 11 5 7 7 4 2 6 6 11 11 9 11 9 11 17 19 21 22 20 20 21 20 19 18 17 18 17 16 13 14 10 10 11 8 7 6 6 5 7 8 9 9 8 7 6 7 7 7
7 7 1 4 1 5 4 7 11 15 14 7 6 5 10 14 18 20 20 20 19 19 20 21 19 18 18 19 15 15 13 14 11 12 10 9 8 6 6 8 8 8 9 9 8 7 8 8 8
7 11 5 3 9 11 5 6 10 11 14 9 6 6 9 12 16 17 18 20 19 19 20 19 19 19 19 17 15 14 15 14 13 11 12 11 10 8 7 8 8 8 9 8 9 8 9 9 8
6 5 3 1 4 9 11 8 6 12 13 11 10 7 8 13 15 17 17 18 19 17 17 18 18 15 15 17 16 15 14 15 14 13 13 12 11 10 9 9 8 9 9 9 9 10 9 10 10
5 10 9 8 6 2 4 10 5 12 9 9 14 9 7 11 14 15 16 17 18 19 19 19 17 18 17 15 15 15 13 13 14 14 13 12 11 11 10 10 10 10 10 9 10 10 10 10 10
Wind_Direction
142 140 137 206 209 70 92 51 26 122 116 48 34 98 132 27 312 22 108 153 152 149 155 155 143 142 145 144 139 132 129 128 127 131 128 131 127 127 130 121 113 111 109 113 107 107 106 108 107
138 149 187 308 188 87 53 17 71 84 109 106 98 99 58 69 56 113 142 149 151 146 148 154 148 143 148 153 142 136 135 133 133 133 133 128 131 133 132 125 117 112 109 105 103 108 107 104 105
149 212 268 73 49 88 96 80 106 104 116 107 104 60 47 34 92 140 124 146 147 145 148 143 146 142 163 158 154 139 139 145 156 134 136 140 137 132 135 123 119 120 117 111 110 109 104 106 108
232 159 107 71 88 86 104 135 82 140 110 77 109 94 97 353 143 140 143 146 147 143 153 142 152 162 163 156 154 146 152 161 146 136 135 131 135 136 131 128 115 118 111 107 107 107 108 105 110
157 189 54 110 104 160 228 256 192 175 108 83 212 120 99 79 108 138 148 152 151 153 153 152 156 159 163 162 158 159 163 171 143 136 135 143 141 146 126 122 119 109 116 108 100 96 94 87 69
151 242 58 102 98 258 253 199 173 154 104 118 115 126 118 114 139 146 155 155 148 153 155 158 144 152 154 158 158 154 165 171 139 139 135 147 139 140 131 121 121 118 112 110 99 96 86 70 24
22 36 58 144 130 134 48 137 163 142 126 159 135 123 102 156 143 151 152 146 146 142 146 146 148 156 160 163 160 152 172 172 153 150 136 154 141 132 120 118 116 119 109 103 90 69 43 3 121
55 32 58 290 156 65 89 137 158 164 124 126 159 177 168 165 147 144 146 144 146 137 137 142 142 143 142 153 150 162 182 177 169 156 149 142 144 133 119 115 131 109 102 92 78 37 4 327 300
119 39 7 112 187 158 153 171 116 100 141 150 38 144 132 143 144 147 149 156 151 152 154 153 146 141 134 120 158 153 196 163 148 137 144 136 131 131 132 79 126 109 97 100 75 357 339 316 285
230 216 234 200 185 212 129 160 151 159 155 154 104 100 134 146 156 160 168 169 169 164 163 158 153 141 134 112 82 82 48 27 80 107 127 130 113 98 98 104 104 69 11 328 3 337 312 276 298
155 249 192 235 192 231 177 150 172 165 200 198 179 148 150 157 169 174 180 180 175 173 167 167 148 144 129 106 100 78 47 15 155 115 125 121 114 119 147 148 156 217 147 296 299 288 302 312 304
250 257 242 327 34 196 227 161 190 190 347 175 149 154 158 171 180 185 187 184 179 178 170 164 154 147 121 116 103 96 98 241 162 128 129 131 154 146 172 203 152 237 310 316 308 312 307 290 289
243 310 199 222 357 198 188 217 258 210 122 133 142 159 171 180 186 194 191 187 188 190 182 179 166 155 136 119 115 103 200 208 124 133 138 158 181 175 193 206 227 256 278 295 305 322 317 307 301
319 269 291 28 94 130 223 217 252 175 148 144 159 170 178 186 192 188 191 189 191 195 191 176 186 171 155 138 127 186 216 185 179 165 182 216 210 177 199 201 233 257 329 352 336 332 316 319 315
69 329 264 358 161 142 184 229 228 160 163 162 176 175 184 193 197 202 196 198 190 191 192 190 188 183 179 169 164 194 210 187 181 227 214 175 179 190 238 217 234 292 345 329 332 308 301 327 323
338 23 341 105 186 130 211 288 259 164 168 179 182 186 190 201 209 207 203 203 187 183 183 185 191 188 184 183 183 179 207 196 197 195 196 202 192 214 203 204 174 315 322 329 335 339 343 346 345
32 308 294 309 194 149 232 288 59 178 189 191 193 195 200 200 208 211 206 202 195 190 181 184 185 182 181 180 189 197 195 201 192 199 216 190 215 198 219 279 152 134 13 339 319 338 345 347 343
271 300 267 282 169 227 248 261 259 188 203 209 200 203 205 210 211 204 206 203 194 192 189 189 190 184 182 178 188 201 198 221 193 219 218 207 195 189 185 113 134 188 283 43 15 327 333 346 351
243 279 276 274 257 248 254 271 280 216 210 215 215 207 212 216 208 205 204 202 194 190 185 188 185 185 180 178 187 199 196 198 216 227 229 200 201 201 192 193 217 195 226 48 21 324 334 327 360
233 286 281 283 211 224 294 279 272 220 217 213 209 214 216 219 206 204 201 199 201 192 190 186 194 183 190 181 186 175 159 192 211 193 224 214 208 204 204 213 222 241 204 200 177 325 330 305 18
243 263 279 294 318 249 284 267 267 223 229 223 221 218 219 219 212 204 201 200 198 196 195 190 193 187 190 195 187 161 141 155 187 206 211 214 205 200 202 209 232 234 231 210 194 232 334 339 27
261 262 263 264 291 309 333 298 274 267 237 231 230 221 217 216 215 211 203 201 203 201 194 192 188 191 187 187 196 202 203 202 186 197 204 204 202 197 200 218 225 236 255 239 231 230 294 293 321
248 207 238 249 278 279 213 261 279 273 262 245 231 227 222 216 212 207 205 203 203 195 192 193 188 190 192 187 201 204 215 208 210 211 208 204 189 203 207 210 212 224 239 232 228 241 269 264 296
116 197 112 77 168 238 225 235 280 262 251 277 249 227 225 216 209 210 208 201 202 195 193 190 190 194 193 194 196 205 212 212 213 225 232 221 211 200 209 212 213 218 227 230 237 222 241 266 279
211 225 228 217 209 271 82 219 260 275 267 263 282 292 231 212 208 206 199 192 192 194 193 191 191 196 197 201 203 207 217 217 218 218 223 225 219 216 215 205 209 215 221 232 242 238 242 242 254
200 225 228 256 246 278 130 236 247 254 279 275 269 270 239 206 204 199 195 193 190 191 190 192 191 198 196 200 205 207 212 220 221 219 224 230 238 226 222 213 215 217 220 220 224 233 243 234 241
162 203 302 204 99 245 266 271 268 265 275 261 283 242 221 209 203 197 193 190 187 187 193 194 192 198 199 201 200 203 208 217 218 215 216 226 230 233 224 212 213 225 230 227 223 241 243 243 238
229 140 190 203 254 262 230 271 262 274 283 292 270 259 232 209 202 196 192 191 191 192 193 196 197 199 198 202 205 204 203 211 221 221 219 220 227 223 217 222 231 235 244 239 230 238 243 245 251
166 202 78 262 261 275 271 255 218 249 266 285 294 288 267 218 200 195 192 194 192 194 194 195 197 193 192 201 203 206 203 207 215 221 223 220 225 223 229 228 225 228 227 224 225 237 253 248 253
250 261 214 248 203 243 306 269 249 245 268 270 278 287 279 238 205 194 191 189 190 193 193 196 200 193 194 196 200 208 207 208 215 222 222 222 223 225 227 226 224 230 236 240 240 245 254 244 248